DateTimeUTC,F1_A11,F1_S11,BsB_S11,BsG_S11,BsR_S11,BbsB_S11,BbsG_S11,BbsR_S11,BaB_A11,BaG_A11,BaR_A11,Tu_S11,T_S11,Uu_S11,U_S11,P_S11,T1_A11
2021-07-22T02:00:00Z,00000200,20000000,,,,,,,-000.35,0000.13,0000.16,18.5,25.4,06.6,04.3,0668.3,31.1
2021-07-22T02:01:00Z,00000200,20000000,,,,,,,-000.20,0000.07,-000.45,18.5,25.4,06.6,04.3,0668.3,31.1
2021-07-22T02:02:00Z,00000200,20000000,,,,,,,-000.08,-000.38,0000.04,18.5,25.4,06.6,04.3,0668.3,31.1
2021-07-22T02:03:00Z,00000200,60000000,,,,,,,0000.21,0000.26,-000.03,18.5,25.4,06.6,04.3,0668.3,31.1
2021-07-22T02:04:00Z,00000200,40000000,0001.73,0000.89,0000.25,0000.26,0000.00,-000.27,-000.06,0000.07,0000.07,18.7,25.3,06.4,04.3,0669.3,31.1
2021-07-22T02:05:00Z,00000200,00000000,0001.33,0000.93,0000.80,-000.02,0000.29,0000.31,0000.42,0000.35,0000.19,18.8,25.2,06.4,04.3,0669.4,31.1
2021-07-22T02:06:00Z,00000200,00000000,0001.38,0001.06,0000.69,-000.05,0000.19,0000.03,-000.18,-000.39,0000.14,18.7,25.2,06.4,04.3,0669.4,31.1
2021-07-22T02:07:00Z,00000200,00000000,0000.85,0000.75,0000.66,-000.30,0000.11,0000.09,0000.62,0000.45,0000.20,18.7,25.2,06.4,04.3,0669.4,31.1
2021-07-22T02:08:00Z,00000200,00000000,0001.89,0001.02,0000.28,0000.22,0000.31,0000.21,-000.13,-000.18,0000.08,18.7,25.2,06.5,04.3,0669.4,31.1
2021-07-22T02:09:00Z,00000200,00000000,0000.83,0000.86,0000.53,0000.13,0000.37,-000.05,0000.06,0000.15,0000.04,18.7,25.1,06.4,04.3,0669.4,31.1
2021-07-22T02:10:00Z,00000200,00000000,0000.59,0000.65,0000.42,-000.16,0000.28,-000.10,0000.40,0000.13,0000.16,18.6,25.1,06.4,04.3,0669.4,31.1
2021-07-22T02:11:00Z,00000200,00000000,0001.37,0000.86,0000.16,0000.49,0000.50,0000.08,0000.20,0000.25,0000.27,18.6,25.1,06.5,04.4,0669.4,31.1
2021-07-22T02:12:00Z,00000200,00000000,0001.49,0000.92,0000.40,0000.99,0000.28,-000.06,-000.02,0000.26,-000.07,18.6,25.1,06.5,04.3,0669.4,31.1
2021-07-22T02:13:00Z,00000200,00000000,0001.21,0000.96,0000.82,-000.07,0000.17,0000.07,-000.06,0000.22,0000.04,18.6,25.1,06.5,04.3,0669.4,31.0
2021-07-22T02:14:00Z,00000200,00000000,0001.17,0001.04,0000.51,0000.17,0000.29,-000.13,0000.40,-000.16,0000.47,18.6,25.0,06.5,04.4,0669.4,31.1
2021-07-22T02:15:00Z,00000200,00000000,0000.75,0000.88,0000.40,0000.08,0000.12,-000.13,0000.37,0000.34,-000.10,18.7,25.1,06.5,04.4,0669.4,31.1
2021-07-22T02:16:00Z,00000200,00000000,0001.11,0001.17,0000.31,0000.41,0000.19,-000.11,-000.04,0000.18,0000.44,18.8,25.1,06.3,04.3,0669.4,31.1
2021-07-22T02:17:00Z,00000200,00000000,0000.93,0000.94,0000.44,0000.50,0000.26,0000.46,0000.25,0000.02,-000.06,18.9,25.2,06.4,04.3,0669.4,31.1
2021-07-22T02:18:00Z,00000200,00000000,0000.78,0000.90,0000.51,0000.47,-000.03,-000.01,0000.20,0000.35,0000.27,18.9,25.2,06.3,04.3,0669.4,31.1
2021-07-22T02:19:00Z,00000200,00000000,0001.23,0000.76,0000.33,0000.25,0000.23,0000.33,0000.08,0000.57,0000.27,18.9,25.2,06.3,04.3,0669.4,31.1
2021-07-22T02:20:00Z,00000200,00000000,0001.49,0000.89,0000.47,0000.11,0000.40,0000.02,0000.43,-000.05,0000.35,18.9,25.2,06.4,04.4,0669.3,31.1
2021-07-22T02:21:00Z,00000200,00000000,0001.07,0000.71,0000.60,0000.11,0000.26,0000.18,0000.17,0000.03,-000.36,18.8,25.2,06.6,04.5,0669.3,31.1
2021-07-22T02:22:00Z,00000200,00000000,0001.00,0000.94,0000.33,0000.29,0000.27,0000.11,-000.23,0000.04,0000.36,18.8,25.2,06.5,04.4,0669.4,31.1
2021-07-22T02:23:00Z,00000200,00000000,0001.08,0000.92,0000.50,0000.16,0000.23,-000.29,0000.21,0000.29,-000.02,18.8,25.2,06.6,04.5,0669.3,31.1
2021-07-22T02:24:00Z,00000200,00000000,0001.52,0000.77,0000.35,0000.63,0000.33,0000.38,0000.07,0000.04,0000.48,18.8,25.2,06.6,04.5,0669.4,31.1
2021-07-22T02:25:00Z,00000200,00000000,0001.77,0001.18,0000.29,-000.40,0000.31,0000.11,0000.41,-000.04,-000.25,18.7,25.2,06.6,04.5,0669.3,31.1
2021-07-22T02:26:00Z,00000200,00000000,0001.04,0000.72,0000.13,-000.22,0000.43,0000.23,-000.37,0000.23,-000.12,18.7,25.1,06.7,04.5,0669.3,31.1
2021-07-22T02:27:00Z,00000200,00000000,0001.43,0001.16,0000.67,0000.29,0000.15,0000.12,0000.28,-000.02,0000.20,18.7,25.1,06.6,04.4,0669.3,31.1
2021-07-22T02:28:00Z,00000200,00000000,0001.60,0000.95,0000.40,-000.07,0000.23,0000.06,0000.18,0000.01,0000.30,18.7,25.1,06.6,04.4,0669.3,31.1
2021-07-22T02:29:00Z,00000200,00000000,0001.18,0000.78,0000.39,0000.23,0000.26,-000.25,0000.17,0000.61,-000.03,18.7,25.1,06.6,04.4,0669.3,31.1
2021-07-22T02:30:00Z,00000200,00000000,0001.24,0001.09,0000.40,-000.28,0000.44,0000.17,0000.24,-000.23,0000.16,18.7,25.1,06.5,04.4,0669.3,31.1
2021-07-22T02:31:00Z,00000200,00000000,0001.70,0000.81,0000.52,0000.09,0000.27,0000.07,0000.01,0000.22,0000.40,18.8,25.2,06.5,04.4,0669.3,31.1
2021-07-22T02:32:00Z,00000200,00000000,0000.90,0001.17,0000.47,0000.31,0000.33,-000.18,0000.35,0000.13,0000.13,18.8,25.2,06.4,04.4,0669.3,31.1
2021-07-22T02:33:00Z,00000200,00000000,0000.57,0000.85,0000.66,-000.20,0000.53,-000.25,-000.68,-000.14,-000.13,18.8,25.2,06.3,04.3,0669.2,31.1
2021-07-22T02:34:00Z,00000200,00000000,0000.72,0000.97,0000.63,0000.59,0000.08,0000.14,0000.22,-000.02,-000.53,18.8,25.2,06.3,04.3,0669.2,31.1
2021-07-22T02:35:00Z,00000200,00000000,0000.23,0000.87,0000.63,0000.17,0000.19,0000.36,0000.32,0000.15,0000.22,18.8,25.2,06.4,04.3,0669.2,31.1
2021-07-22T02:36:00Z,00000200,00000000,0001.08,0000.90,0000.34,-000.36,0000.39,-000.13,0000.21,0000.27,0000.24,18.8,25.1,06.5,04.4,0669.2,31.1
2021-07-22T02:37:00Z,00000200,00000000,0000.81,0000.97,0000.84,0000.07,0000.33,0000.44,-000.18,-000.07,0000.37,18.7,25.1,06.4,04.3,0669.2,31.1
2021-07-22T02:38:00Z,00000200,00000000,0000.66,0000.77,0000.73,0000.80,0000.31,-000.14,0000.11,-000.44,-000.20,18.7,25.1,06.3,04.3,0669.2,31.1
2021-07-22T02:39:00Z,00000200,00000000,0001.45,0000.73,0000.52,0000.06,0000.23,0000.26,-000.12,0000.46,0000.09,18.7,25.1,06.3,04.3,0669.1,31.1
2021-07-22T02:40:00Z,00000200,00000000,0000.48,0000.91,0000.70,0000.39,0000.10,0000.30,-000.12,-000.31,0000.00,18.7,25.1,06.1,04.2,0669.1,31.0
2021-07-22T02:41:00Z,00000200,00000000,0000.77,0000.67,0000.32,-000.13,0000.27,0000.24,0000.08,-000.14,-000.37,18.6,25.1,06.1,04.1,0669.1,31.1
2021-07-22T02:42:00Z,00000200,00000000,0001.10,0000.91,0000.49,0000.20,0000.12,-000.03,-000.49,0000.20,0000.12,18.6,25.0,05.8,03.9,0669.1,31.0
2021-07-22T02:43:00Z,00000200,00000000,0000.91,0000.92,0000.45,0000.59,0000.57,-000.14,0000.90,0000.08,0000.51,18.6,25.1,05.9,03.9,0669.1,31.1
2021-07-22T02:44:00Z,00000200,00000000,0000.68,0000.91,0000.25,0000.45,-000.10,0000.01,0000.29,0000.87,0000.55,18.6,25.1,06.1,04.1,0669.0,31.1
2021-07-22T02:45:00Z,00000200,00000000,0001.00,0001.04,0000.24,0000.40,0000.14,0000.11,0000.05,-000.04,0000.02,18.7,25.0,06.0,04.1,0669.0,31.1
2021-07-22T02:46:00Z,00000200,00000000,0001.05,0000.95,0000.19,0000.58,0000.19,-000.13,0000.29,0000.36,-000.15,18.8,25.1,06.1,04.1,0669.0,31.1
2021-07-22T02:47:00Z,00000200,00000000,0001.34,0000.67,0000.41,-000.30,-000.20,-000.03,-000.12,-000.15,0000.43,18.8,25.1,06.0,04.1,0669.0,31.1
2021-07-22T02:48:00Z,00000200,00000000,0000.75,0000.66,0000.79,0000.02,0000.37,0000.48,0000.10,-000.07,-000.26,18.8,25.2,05.9,04.0,0668.9,31.1
2021-07-22T02:49:00Z,00000200,00000000,0001.32,0001.08,0000.43,-000.03,0000.41,0000.05,0000.22,0000.02,-000.04,18.8,25.2,05.9,04.0,0668.9,31.1
2021-07-22T02:50:00Z,00000200,00000000,0001.88,0001.03,0000.23,0000.02,0000.22,0000.23,0000.14,0000.30,0000.36,18.8,25.1,06.0,04.0,0668.9,31.1
2021-07-22T02:51:00Z,00000200,00000000,0001.39,0000.75,0000.39,0000.29,0000.20,0000.13,0000.01,-000.16,-000.04,18.8,25.1,06.1,04.1,0668.9,31.1
2021-07-22T02:52:00Z,00000200,00000000,0001.36,0000.83,0000.48,0000.19,0000.17,0000.05,0000.36,0000.36,0000.50,18.8,25.1,06.0,04.1,0668.8,31.1
2021-07-22T02:53:00Z,00000200,00000000,0000.95,0000.86,0000.72,0000.21,0000.01,0000.19,-000.33,0000.03,-000.21,18.7,25.1,06.0,04.1,0668.8,31.1
2021-07-22T02:54:00Z,00000200,00000000,0001.54,0000.98,0000.72,-000.01,0000.24,-000.20,0000.56,0000.18,0000.38,18.7,25.1,06.0,04.1,0668.8,31.1
2021-07-22T02:55:00Z,00000200,00000000,0001.71,0000.86,0000.27,0000.34,0000.20,0000.09,0000.11,0000.16,-000.33,18.7,25.1,06.0,04.1,0668.8,31.1
2021-07-22T02:56:00Z,00000200,00000000,0001.81,0000.98,0000.53,-000.07,0000.40,-000.24,-000.00,-000.00,0000.31,18.6,25.1,06.0,04.1,0668.8,31.1
2021-07-22T02:57:00Z,00000200,40000000,,,,,,,0000.14,0000.39,0000.30,18.7,25.0,05.8,03.9,0668.8,31.1
2021-07-22T02:58:00Z,00000200,60000000,,,,,,,-000.14,-000.12,-000.01,18.4,25.2,05.9,03.9,0667.8,31.1
2021-07-22T02:59:00Z,00000200,20000000,,,,,,,0000.28,0000.49,0000.06,18.4,25.3,05.9,03.9,0667.7,31.1
